UAE8ER OMDB-KJFK

Flight info

Callsign UAE8ER
Flight time N/A
Altitude 34000
Route RIDAP M557 TUMAK L602 TASMI DCT ODALI/N0491F360 UL852 NEGEM DCT TEGRI DCT ABETI DCT SNU DCT RENKA DCT MAMOR DCT PETIX DCT TUSUK/N0481F380 DCT ADKUV DCT BUB L608 DENUT L610 KOPUL Q60 OKSAW DCT FELCA DCT OFSOX DCT SLANY DCT MALOT/M085F390 DCT 54N020W 55N030W 55N040W 53N050W DCT RIKAL/N0490F400 N572A TOPPS DCT ENE PARCH4
Aircraft A388/J-SADE2E3FGHIJ3J4J5M1RWXY/LB1D1

Departure

Time 2026-04-24 19:21
Airport Dubai International Airport (OMDB)

Arrival

Time N/A
Airport John F. Kennedy International Airport (KJFK)
Time Latitude Longitude Altitude Speed Heading
2026-04-24 18:54 25.25201 55.35719 26 ft 1 kts 211°
2026-04-24 18:58 25.25207 55.35723 26 ft 2 kts 211°
2026-04-24 18:58 25.25225 55.35735 32 ft 3 kts 211°
2026-04-24 18:58 25.25242 55.35746 32 ft 3 kts 211°
2026-04-24 18:59 25.25259 55.35758 32 ft 3 kts 214°
2026-04-24 18:59 25.25273 55.35771 32 ft 3 kts 240°
2026-04-24 18:59 25.25279 55.35789 32 ft 3 kts 284°
2026-04-24 18:59 25.25275 55.35802 32 ft 1 kts 302°
2026-04-24 19:00 25.25265 55.35818 26 ft 3 kts 302°
2026-04-24 19:00 25.25257 55.35833 32 ft 1 kts 302°
2026-04-24 19:00 25.25257 55.35834 32 ft 1 kts 302°
2026-04-24 19:05 25.25272 55.35807 30 ft 16 kts 302°
2026-04-24 19:06 25.25381 55.35613 32 ft 42 kts 302°
2026-04-24 19:06 25.25528 55.35351 31 ft 31 kts 302°
2026-04-24 19:06 25.25602 55.35220 29 ft 1 kts 302°
2026-04-24 19:08 25.25639 55.35159 31 ft 18 kts 310°
2026-04-24 19:08 25.25725 55.35169 31 ft 18 kts 48°
2026-04-24 19:09 25.25827 55.35252 29 ft 19 kts 31°
2026-04-24 19:09 25.25898 55.35302 29 ft 0 kts 34°
2026-04-24 19:09 25.25935 55.35327 26 ft 12 kts 33°
2026-04-24 19:09 25.25990 55.35407 26 ft 15 kts 66°
2026-04-24 19:10 25.25998 55.35526 27 ft 17 kts 111°
2026-04-24 19:10 25.25935 55.35652 27 ft 21 kts 121°
2026-04-24 19:10 25.25864 55.35780 27 ft 16 kts 122°
2026-04-24 19:10 25.25796 55.35899 27 ft 20 kts 122°
2026-04-24 19:11 25.25717 55.36038 27 ft 15 kts 122°
2026-04-24 19:11 25.25689 55.36089 27 ft 2 kts 121°
2026-04-24 19:11 25.25662 55.36137 28 ft 13 kts 122°
2026-04-24 19:11 25.25598 55.36251 27 ft 22 kts 122°
2026-04-24 19:12 25.25499 55.36426 27 ft 31 kts 121°
2026-04-24 19:12 25.25384 55.36631 26 ft 27 kts 121°
2026-04-24 19:12 25.25287 55.36807 27 ft 26 kts 121°
2026-04-24 19:12 25.25190 55.36976 27 ft 26 kts 122°
2026-04-24 19:13 25.25128 55.37089 28 ft 25 kts 122°
2026-04-24 19:13 25.25006 55.37304 28 ft 25 kts 122°
2026-04-24 19:13 25.24915 55.37464 28 ft 25 kts 122°
2026-04-24 19:13 25.24824 55.37625 28 ft 25 kts 122°
2026-04-24 19:14 25.24733 55.37786 27 ft 24 kts 121°
2026-04-24 19:14 25.24716 55.37839 27 ft 0 kts 97°
2026-04-24 19:14 25.24698 55.37877 27 ft 13 kts 131°
2026-04-24 19:14 25.24666 55.37921 27 ft 2 kts 107°
2026-04-24 19:15 25.24676 55.37970 28 ft 7 kts 46°
2026-04-24 19:15 25.24689 55.37979 28 ft 0 kts 23°
2026-04-24 19:19 25.24703 55.37986 28 ft 8 kts 23°
2026-04-24 19:19 25.24786 55.38017 30 ft 11 kts 352°
2026-04-24 19:19 25.24837 55.37969 30 ft 7 kts 301°
2026-04-24 19:19 25.24885 55.37885 31 ft 40 kts 302°
2026-04-24 19:20 25.25152 55.37403 32 ft 104 kts 301°
2026-04-24 19:20 25.25611 55.36579 30 ft 149 kts 302°
2026-04-24 19:20 25.26217 55.35493 38 ft 176 kts 302°
2026-04-24 19:20 25.26861 55.34361 378 ft 176 kts 305°
2026-04-24 19:21 25.27547 55.33221 688 ft 180 kts 303°
2026-04-24 19:21 25.28199 55.32033 1048 ft 180 kts 301°
2026-04-24 19:21 25.28832 55.30842 1440 ft 179 kts 302°
2026-04-24 19:21 25.29472 55.29650 1803 ft 182 kts 302°
2026-04-24 19:22 25.29933 55.28871 1999 ft 185 kts 306°
2026-04-24 19:22 25.30964 55.27266 2226 ft 195 kts 306°
2026-04-24 19:22 25.31745 55.26039 2471 ft 195 kts 306°
2026-04-24 19:22 25.32523 55.24814 2737 ft 195 kts 306°
2026-04-24 19:23 25.33306 55.23579 2941 ft 198 kts 306°
2026-04-24 19:23 25.34116 55.22305 3007 ft 210 kts 306°
2026-04-24 19:23 25.34995 55.20925 3155 ft 228 kts 306°
2026-04-24 19:23 25.35710 55.19305 3410 ft 241 kts 284°
2026-04-24 19:24 25.35820 55.17457 3953 ft 243 kts 268°
2026-04-24 19:24 25.35881 55.15536 4186 ft 258 kts 279°
2026-04-24 19:24 25.36162 55.13522 4519 ft 268 kts 280°
2026-04-24 19:24 25.36464 55.11503 5051 ft 270 kts 279°
2026-04-24 19:25 25.36766 55.09425 5601 ft 272 kts 279°
2026-04-24 19:25 25.37054 55.07375 6152 ft 273 kts 279°
2026-04-24 19:25 25.37340 55.05291 6682 ft 275 kts 278°
2026-04-24 19:25 25.37624 55.03192 7214 ft 277 kts 278°
2026-04-24 19:26 25.37906 55.01098 7731 ft 279 kts 278°
2026-04-24 19:26 25.38193 54.98964 8245 ft 282 kts 278°
2026-04-24 19:26 25.38483 54.96807 8782 ft 284 kts 278°
2026-04-24 19:26 25.38773 54.94643 9319 ft 286 kts 277°
2026-04-24 19:27 25.39066 54.92463 9874 ft 287 kts 277°
2026-04-24 19:27 25.39362 54.90244 10148 ft 299 kts 277°
2026-04-24 19:27 25.39676 54.87896 10281 ft 314 kts 278°
2026-04-24 19:27 25.40003 54.85449 10410 ft 329 kts 278°
2026-04-24 19:28 25.40343 54.82906 10649 ft 338 kts 278°
2026-04-24 19:28 25.40688 54.80323 11127 ft 340 kts 278°
2026-04-24 19:28 25.41034 54.77733 11616 ft 342 kts 278°
2026-04-24 19:28 25.41376 54.75159 12090 ft 343 kts 277°
2026-04-24 19:29 25.42077 54.69877 13006 ft 349 kts 277°
2026-04-24 19:29 25.42432 54.67203 13471 ft 352 kts 277°
2026-04-24 19:29 25.42787 54.64516 13936 ft 354 kts 277°
2026-04-24 19:30 25.43183 54.61824 14415 ft 354 kts 281°
2026-04-24 19:30 25.43874 54.59199 14788 ft 357 kts 287°
2026-04-24 19:30 25.44669 54.56591 14882 ft 357 kts 287°
2026-04-24 19:30 25.45451 54.53974 14935 ft 357 kts 287°
2026-04-24 19:31 25.46221 54.51373 15009 ft 357 kts 287°
2026-04-24 19:31 25.46995 54.48750 15310 ft 360 kts 286°
2026-04-24 19:31 25.47761 54.46152 15798 ft 359 kts 286°
2026-04-24 19:31 25.48539 54.43515 16296 ft 359 kts 286°
2026-04-24 19:32 25.49315 54.40880 16745 ft 361 kts 286°
2026-04-24 19:32 25.50094 54.38238 17208 ft 361 kts 286°
2026-04-24 19:32 25.50871 54.35597 17731 ft 360 kts 286°
2026-04-24 19:32 25.51648 54.32957 18145 ft 362 kts 286°
2026-04-24 19:33 25.52429 54.30300 18499 ft 364 kts 286°
2026-04-24 19:33 25.53216 54.27619 18820 ft 366 kts 286°
2026-04-24 19:33 25.54004 54.24935 19154 ft 368 kts 286°
2026-04-24 19:33 25.54799 54.22226 19528 ft 369 kts 286°
2026-04-24 19:34 25.55594 54.19521 19851 ft 371 kts 286°
2026-04-24 19:34 25.56394 54.16794 20175 ft 373 kts 286°
2026-04-24 19:34 25.57199 54.14049 20494 ft 375 kts 286°
2026-04-24 19:34 25.58005 54.11298 20826 ft 377 kts 286°
2026-04-24 19:35 25.58816 54.08527 21139 ft 379 kts 286°
2026-04-24 19:35 25.59629 54.05745 21468 ft 381 kts 286°
2026-04-24 19:35 25.60434 54.02939 21778 ft 383 kts 286°
2026-04-24 19:35 25.61234 54.00124 22101 ft 385 kts 286°
2026-04-24 19:36 25.62038 53.97293 22506 ft 384 kts 286°
2026-04-24 19:36 25.62834 53.94494 22835 ft 386 kts 286°
2026-04-24 19:36 25.63382 53.92569 22934 ft 390 kts 286°
2026-04-24 19:36 25.64467 53.88755 23359 ft 392 kts 286°
2026-04-24 19:37 25.65286 53.85876 23635 ft 393 kts 286°
2026-04-24 19:37 25.66111 53.82974 23908 ft 395 kts 286°
2026-04-24 19:37 25.66935 53.80072 24171 ft 396 kts 286°
2026-04-24 19:37 25.67766 53.77143 24434 ft 398 kts 286°
2026-04-24 19:38 25.68319 53.75193 24608 ft 399 kts 286°
2026-04-24 19:38 25.69148 53.72266 24949 ft 398 kts 285°
2026-04-24 19:38 25.69976 53.69334 25238 ft 399 kts 285°
2026-04-24 19:38 25.70801 53.66398 25467 ft 401 kts 285°
2026-04-24 19:39 25.71634 53.63431 25753 ft 403 kts 285°
2026-04-24 19:39 25.72465 53.60467 26026 ft 404 kts 285°
2026-04-24 19:39 25.73304 53.57475 26316 ft 406 kts 285°
2026-04-24 19:39 25.74145 53.54476 26610 ft 408 kts 285°
2026-04-24 19:40 25.74989 53.51464 26918 ft 410 kts 285°
2026-04-24 19:40 25.75837 53.48438 27233 ft 412 kts 285°
2026-04-24 19:40 25.76693 53.45391 27574 ft 413 kts 285°
2026-04-24 19:40 25.77549 53.42342 27908 ft 415 kts 285°
2026-04-24 19:41 25.78408 53.39278 28235 ft 417 kts 285°
2026-04-24 19:41 25.79271 53.36198 28563 ft 419 kts 285°
2026-04-24 19:41 25.80136 53.33107 28905 ft 421 kts 285°
2026-04-24 19:41 25.81006 53.29995 29228 ft 423 kts 285°
2026-04-24 19:42 25.81872 53.26897 29554 ft 425 kts 285°
2026-04-24 19:42 25.82747 53.23760 29909 ft 427 kts 285°
2026-04-24 19:42 25.83626 53.20608 30220 ft 428 kts 285°
2026-04-24 19:42 25.84627 53.17477 30501 ft 432 kts 291°
2026-04-24 19:43 25.85883 53.14417 30781 ft 434 kts 292°
2026-04-24 19:43 25.87141 53.11359 31078 ft 436 kts 292°
2026-04-24 19:43 25.88391 53.08287 31359 ft 438 kts 291°
2026-04-24 19:43 25.89644 53.05198 31634 ft 440 kts 291°
2026-04-24 19:44 25.90905 53.02089 31911 ft 442 kts 291°
2026-04-24 19:44 25.92156 52.99009 32214 ft 443 kts 291°
2026-04-24 19:44 25.93424 52.95883 32537 ft 444 kts 291°
2026-04-24 19:44 25.94694 52.92751 32804 ft 446 kts 291°
2026-04-24 19:45 25.95972 52.89598 33083 ft 448 kts 291°
2026-04-24 19:45 25.97252 52.86437 33354 ft 449 kts 291°
2026-04-24 19:45 25.98539 52.83258 33627 ft 451 kts 291°
2026-04-24 19:45 25.99826 52.80076 33904 ft 453 kts 291°
2026-04-24 19:46 26.01119 52.76877 34153 ft 454 kts 291°
2026-04-24 19:46 26.02415 52.73677 34538 ft 452 kts 292°
2026-04-24 19:46 26.03794 52.70521 34734 ft 456 kts 294°
2026-04-24 19:46 26.05236 52.67384 35065 ft 455 kts 294°
2026-04-24 19:47 26.06677 52.64259 35494 ft 452 kts 294°
2026-04-24 19:47 26.08093 52.61162 35914 ft 449 kts 294°
2026-04-24 19:47 26.09494 52.58070 36295 ft 446 kts 293°
2026-04-24 19:47 26.10863 52.55029 36685 ft 443 kts 293°
2026-04-24 19:48 26.12254 52.51934 37053 ft 441 kts 293°
2026-04-24 19:48 26.13612 52.48922 37337 ft 441 kts 294°
2026-04-24 19:48 26.16355 52.42839 38024 ft 437 kts 294°
2026-04-24 19:49 26.19069 52.36811 38552 ft 436 kts 293°
2026-04-24 19:49 26.21774 52.30792 39017 ft 434 kts 293°
2026-04-24 19:50 26.25723 52.21717 39526 ft 434 kts 292°
2026-04-24 19:50 26.27028 52.18685 39681 ft 434 kts 292°
2026-04-24 19:51 26.29653 52.12598 39904 ft 437 kts 292°
2026-04-24 19:51 26.30974 52.09536 39920 ft 441 kts 292°
2026-04-24 19:52 26.34925 52.00396 39916 ft 438 kts 291°
2026-04-24 19:52 26.37531 51.94252 39915 ft 437 kts 289°
2026-04-24 19:53 26.39675 51.87937 39921 ft 435 kts 287°
2026-04-24 19:54 26.42868 51.78453 39931 ft 435 kts 287°
2026-04-24 19:54 26.44987 51.72140 39925 ft 435 kts 287°
2026-04-24 19:55 26.46746 51.66882 39919 ft 435 kts 287°
2026-04-24 19:55 26.49218 51.59474 39921 ft 435 kts 287°
2026-04-24 19:56 26.51325 51.53142 39922 ft 435 kts 287°
2026-04-24 19:56 26.53414 51.46853 39924 ft 435 kts 287°
2026-04-24 19:57 26.55516 51.40516 39927 ft 435 kts 287°
2026-04-24 19:57 26.57620 51.34164 39928 ft 436 kts 287°
2026-04-24 19:58 26.59719 51.27815 39928 ft 436 kts 287°
2026-04-24 19:58 26.61827 51.21455 39928 ft 437 kts 287°
2026-04-24 19:59 26.63934 51.15086 39932 ft 437 kts 287°
2026-04-24 19:59 26.66039 51.08710 39931 ft 437 kts 287°
2026-04-24 20:00 26.68137 51.02347 39932 ft 437 kts 287°
2026-04-24 20:00 26.70212 50.95955 39962 ft 436 kts 286°
2026-04-24 20:01 26.72245 50.89572 39953 ft 435 kts 286°
2026-04-24 20:01 26.74275 50.83208 39948 ft 434 kts 286°
2026-04-24 20:02 26.75959 50.77928 39950 ft 433 kts 286°
2026-04-24 20:02 26.78391 50.70549 39930 ft 433 kts 289°
2026-04-24 20:03 26.81145 50.64527 39951 ft 437 kts 296°
2026-04-24 20:03 26.84604 50.58939 39938 ft 441 kts 303°
2026-04-24 20:04 26.88503 50.53612 39929 ft 441 kts 303°
2026-04-24 20:04 26.92427 50.48315 39927 ft 443 kts 307°
2026-04-24 20:05 26.96674 50.43291 39946 ft 444 kts 307°
2026-04-24 20:05 27.00888 50.38272 39933 ft 444 kts 307°
2026-04-24 20:06 27.05119 50.33229 39934 ft 444 kts 307°
2026-04-24 20:06 27.09337 50.28151 39939 ft 444 kts 306°
2026-04-24 20:07 27.12837 50.23912 39952 ft 444 kts 307°
2026-04-24 20:07 27.18136 50.18329 39954 ft 452 kts 315°
2026-04-24 20:08 27.23233 50.14111 39953 ft 454 kts 316°
2026-04-24 20:08 27.28321 50.09895 39955 ft 454 kts 316°
2026-04-24 20:09 27.33406 50.05683 39952 ft 454 kts 316°
2026-04-24 20:09 27.38447 50.01463 39949 ft 453 kts 315°
2026-04-24 20:10 27.43390 49.97081 39951 ft 452 kts 314°
2026-04-24 20:10 27.48331 49.92701 39949 ft 452 kts 315°
2026-04-24 20:11 27.53294 49.88324 39951 ft 453 kts 314°
2026-04-24 20:11 27.58263 49.83942 39954 ft 453 kts 314°
2026-04-24 20:12 27.63224 49.79563 39949 ft 453 kts 314°
2026-04-24 20:12 27.68181 49.75182 39951 ft 453 kts 314°
2026-04-24 20:13 27.73111 49.70819 39949 ft 453 kts 314°
2026-04-24 20:13 27.78063 49.66432 39950 ft 453 kts 314°
2026-04-24 20:14 27.83006 49.62028 39946 ft 452 kts 313°
2026-04-24 20:14 27.87946 49.57612 39951 ft 452 kts 313°
2026-04-24 20:15 27.92880 49.53198 39954 ft 452 kts 313°
2026-04-24 20:15 27.97815 49.48781 39958 ft 452 kts 313°
2026-04-24 20:16 28.02720 49.44386 39965 ft 452 kts 313°
2026-04-24 20:16 28.07617 49.39940 39974 ft 450 kts 312°
2026-04-24 20:17 28.12490 49.35481 39967 ft 450 kts 312°
2026-04-24 20:17 28.19806 49.28792 39965 ft 450 kts 312°
2026-04-24 20:18 28.24640 49.24368 39958 ft 449 kts 312°
2026-04-24 20:18 28.29494 49.19921 39955 ft 448 kts 312°
2026-04-24 20:19 28.34338 49.15479 39950 ft 447 kts 312°
2026-04-24 20:19 28.39191 49.11041 39950 ft 449 kts 314°
2026-04-24 20:20 28.44386 49.06992 39942 ft 453 kts 316°
2026-04-24 20:20 28.49575 49.03010 39944 ft 453 kts 316°
2026-04-24 20:21 28.54794 48.98998 39942 ft 453 kts 316°
2026-04-24 20:21 28.60022 48.94979 39946 ft 453 kts 316°
2026-04-24 20:22 28.65259 48.90951 39947 ft 454 kts 316°
2026-04-24 20:22 28.70488 48.86925 39962 ft 454 kts 316°
2026-04-24 20:23 28.75721 48.82889 39957 ft 455 kts 316°
2026-04-24 20:23 28.80960 48.78844 39956 ft 455 kts 316°
2026-04-24 20:24 28.86220 48.74812 39956 ft 455 kts 316°
2026-04-24 20:24 28.91493 48.70778 39951 ft 456 kts 315°
2026-04-24 20:25 28.96760 48.66738 39951 ft 456 kts 315°
2026-04-24 20:25 29.01990 48.62720 39947 ft 456 kts 315°
2026-04-24 20:26 29.07262 48.58663 39949 ft 457 kts 315°
2026-04-24 20:26 29.11654 48.55281 39947 ft 457 kts 315°
2026-04-24 20:27 29.16924 48.51216 39948 ft 457 kts 315°
2026-04-24 20:27 29.22194 48.47148 39952 ft 457 kts 315°
2026-04-24 20:28 29.27471 48.43067 39960 ft 458 kts 315°
2026-04-24 20:28 29.32765 48.38969 39954 ft 459 kts 315°
2026-04-24 20:29 29.38049 48.34874 39967 ft 459 kts 315°
2026-04-24 20:29 29.43364 48.30763 39946 ft 462 kts 317°
2026-04-24 20:30 29.48947 48.27054 39943 ft 469 kts 319°
2026-04-24 20:30 29.54650 48.23294 39945 ft 477 kts 319°
2026-04-24 20:31 29.60477 48.19448 39946 ft 487 kts 319°
2026-04-24 20:31 29.66419 48.15528 39945 ft 497 kts 320°
2026-04-24 20:32 29.72469 48.11533 39967 ft 507 kts 319°
2026-04-24 20:32 29.78614 48.07469 39942 ft 516 kts 320°
2026-04-24 20:33 29.84886 48.03319 40222 ft 516 kts 320°
2026-04-24 20:33 29.87943 48.01323 41395 ft 494 kts 320°
2026-04-24 20:33 29.90899 47.99424 42360 ft 480 kts 320°
2026-04-24 20:34 29.93804 47.97576 42953 ft 472 kts 320°
2026-04-24 20:34 29.96671 47.95763 43313 ft 468 kts 320°
2026-04-24 20:34 29.99523 47.93964 43566 ft 466 kts 320°
2026-04-24 20:34 30.02365 47.92174 43768 ft 465 kts 320°
2026-04-24 20:35 30.05198 47.90391 43973 ft 463 kts 320°
2026-04-24 20:35 30.08029 47.88613 44169 ft 462 kts 320°
2026-04-24 20:35 30.10846 47.86847 44350 ft 460 kts 320°
2026-04-24 20:35 30.13662 47.85085 44528 ft 459 kts 320°
2026-04-24 20:36 30.16467 47.83333 44677 ft 458 kts 320°
2026-04-24 20:36 30.19266 47.81588 44810 ft 456 kts 320°
2026-04-24 20:36 30.22056 47.79853 44921 ft 455 kts 320°
2026-04-24 20:36 30.24806 47.78146 45060 ft 453 kts 320°
2026-04-24 20:37 30.27610 47.76409 45178 ft 452 kts 320°
2026-04-24 20:37 30.30376 47.74700 45282 ft 450 kts 320°
2026-04-24 20:37 30.33099 47.73020 45395 ft 448 kts 320°
2026-04-24 20:37 30.35857 47.71323 45475 ft 447 kts 320°
2026-04-24 20:38 30.41325 47.67970 45678 ft 443 kts 320°
2026-04-24 20:38 30.46765 47.64650 45821 ft 440 kts 320°
2026-04-24 20:39 30.52160 47.61374 45946 ft 436 kts 320°
2026-04-24 20:39 30.57522 47.58135 46037 ft 432 kts 320°
2026-04-24 20:40 30.62819 47.54955 46102 ft 429 kts 320°
2026-04-24 20:40 30.68129 47.51785 46136 ft 425 kts 320°
2026-04-24 20:41 30.73337 47.48693 46152 ft 421 kts 320°
2026-04-24 20:41 30.78533 47.45625 46127 ft 417 kts 320°
2026-04-24 20:42 30.83693 47.42595 46089 ft 413 kts 320°
2026-04-24 20:42 30.88821 47.39600 46010 ft 410 kts 320°
2026-04-24 20:43 30.93916 47.36640 45968 ft 407 kts 321°
2026-04-24 20:43 30.98939 47.33738 45862 ft 404 kts 321°
2026-04-24 20:44 31.03966 47.30849 45741 ft 402 kts 321°
2026-04-24 20:44 31.08968 47.27987 45627 ft 399 kts 321°
2026-04-24 20:45 31.13951 47.25150 45499 ft 397 kts 321°
2026-04-24 20:45 31.18902 47.22343 45330 ft 395 kts 321°
2026-04-24 20:46 31.23838 47.19557 45197 ft 393 kts 321°
2026-04-24 20:46 31.26297 47.18172 45091 ft 393 kts 321°
2026-04-24 20:46 31.28763 47.16784 44935 ft 394 kts 321°
2026-04-24 20:47 31.31229 47.15393 44796 ft 394 kts 321°
2026-04-24 20:47 31.33709 47.13996 44712 ft 394 kts 321°
2026-04-24 20:47 31.38597 47.11253 44623 ft 390 kts 321°
2026-04-24 20:48 31.43497 47.08515 44384 ft 391 kts 321°
2026-04-24 20:48 31.45961 47.07137 44217 ft 392 kts 321°
2026-04-24 20:48 31.48417 47.05763 44113 ft 392 kts 321°
2026-04-24 20:49 31.53325 47.03026 44006 ft 389 kts 321°
2026-04-24 20:49 31.58221 47.00307 43844 ft 389 kts 321°
2026-04-24 20:50 31.60666 46.98949 43687 ft 390 kts 321°
2026-04-24 20:50 31.63123 46.97582 43562 ft 391 kts 321°
2026-04-24 20:50 31.68030 46.94858 43429 ft 389 kts 321°
2026-04-24 20:51 31.72886 46.92172 43310 ft 388 kts 321°
2026-04-24 20:51 31.77776 46.89473 43184 ft 388 kts 322°
2026-04-24 20:52 31.82659 46.86783 43049 ft 387 kts 322°
2026-04-24 20:52 31.87533 46.84107 42949 ft 386 kts 322°
2026-04-24 20:53 31.92396 46.81443 42846 ft 385 kts 322°
2026-04-24 20:53 31.97218 46.78809 42743 ft 384 kts 322°
2026-04-24 20:54 32.02070 46.76164 42625 ft 383 kts 322°
2026-04-24 20:54 32.06914 46.73530 42547 ft 383 kts 322°
2026-04-24 20:55 32.11757 46.70903 42431 ft 382 kts 322°
2026-04-24 20:55 32.16560 46.68305 42345 ft 381 kts 322°
2026-04-24 20:56 32.21383 46.65701 42251 ft 381 kts 322°
2026-04-24 20:56 32.26206 46.63104 42159 ft 380 kts 322°
2026-04-24 20:57 32.31023 46.60515 42062 ft 380 kts 322°
2026-04-24 20:57 32.35825 46.57940 41986 ft 379 kts 322°
2026-04-24 20:58 32.40630 46.55370 41894 ft 379 kts 322°
2026-04-24 20:58 32.45407 46.52819 41815 ft 378 kts 322°
2026-04-24 20:59 32.50201 46.50266 41728 ft 377 kts 322°
2026-04-24 20:59 32.54993 46.47720 41692 ft 377 kts 323°
2026-04-24 21:00 32.59781 46.45180 41592 ft 377 kts 323°
2026-04-24 21:00 32.64566 46.42647 41539 ft 376 kts 323°
2026-04-24 21:01 32.69347 46.40123 41471 ft 376 kts 323°
2026-04-24 21:01 32.74127 46.37604 41448 ft 375 kts 323°
2026-04-24 21:02 32.78903 46.35093 41360 ft 375 kts 323°
2026-04-24 21:02 32.83681 46.32582 41294 ft 375 kts 323°
2026-04-24 21:03 32.88423 46.30096 41282 ft 374 kts 323°
2026-04-24 21:03 32.93185 46.27607 41245 ft 374 kts 323°
2026-04-24 21:04 32.97947 46.25122 41184 ft 373 kts 323°
2026-04-24 21:04 33.02713 46.22639 41171 ft 373 kts 323°
2026-04-24 21:05 33.07480 46.20158 41074 ft 374 kts 323°
2026-04-24 21:05 33.12219 46.17693 41054 ft 373 kts 323°
2026-04-24 21:06 33.16981 46.15222 40982 ft 374 kts 323°
2026-04-24 21:06 33.21757 46.12741 40905 ft 375 kts 323°
2026-04-24 21:07 33.26516 46.10270 40911 ft 374 kts 323°
2026-04-24 21:07 33.31293 46.07795 40895 ft 374 kts 323°
2026-04-24 21:08 33.36059 46.05329 40839 ft 374 kts 323°
2026-04-24 21:08 33.40843 46.02849 40812 ft 374 kts 323°
2026-04-24 21:09 33.45623 46.00377 40806 ft 373 kts 323°
2026-04-24 21:09 33.50392 45.97914 40818 ft 373 kts 323°
2026-04-24 21:10 33.55150 45.95459 40729 ft 374 kts 323°
2026-04-24 21:10 33.59931 45.92995 40677 ft 374 kts 323°
2026-04-24 21:11 33.64706 45.90542 40690 ft 373 kts 323°
2026-04-24 21:11 33.69487 45.88086 40624 ft 374 kts 323°
2026-04-24 21:12 33.73466 45.86044 40644 ft 374 kts 323°
2026-04-24 21:12 33.79056 45.83180 40619 ft 373 kts 323°
2026-04-24 21:13 33.83837 45.80734 40652 ft 373 kts 323°
2026-04-24 21:13 33.88607 45.78302 40637 ft 372 kts 323°
2026-04-24 21:14 33.93362 45.75877 40500 ft 375 kts 323°
2026-04-24 21:14 33.98165 45.73421 40494 ft 374 kts 324°
2026-04-24 21:15 34.02960 45.70980 40516 ft 373 kts 324°
2026-04-24 21:15 34.07754 45.68539 40459 ft 374 kts 324°
2026-04-24 21:16 34.12544 45.66106 40460 ft 373 kts 324°
2026-04-24 21:16 34.17332 45.63673 40383 ft 374 kts 324°
2026-04-24 21:17 34.22105 45.61251 40385 ft 373 kts 324°
2026-04-24 21:17 34.26090 45.59233 40382 ft 373 kts 324°
2026-04-24 21:18 34.31698 45.56393 40322 ft 374 kts 324°
2026-04-24 21:18 34.35698 45.54367 40296 ft 374 kts 325°
2026-04-24 21:19 34.41271 45.51555 40303 ft 373 kts 325°
2026-04-24 21:19 34.45306 45.49519 40237 ft 375 kts 325°
2026-04-24 21:20 34.52495 45.45893 40229 ft 374 kts 325°
2026-04-24 21:21 34.57303 45.43474 40240 ft 374 kts 325°
2026-04-24 21:21 34.62111 45.41058 40223 ft 374 kts 325°
2026-04-24 21:22 34.66923 45.38643 40213 ft 374 kts 325°
2026-04-24 21:22 34.71738 45.36227 40169 ft 375 kts 326°
2026-04-24 21:23 34.76560 45.33813 40174 ft 374 kts 326°
2026-04-24 21:23 34.81365 45.31416 40155 ft 374 kts 326°
2026-04-24 21:24 34.86188 45.29010 40137 ft 374 kts 326°
2026-04-24 21:24 34.91000 45.26615 40157 ft 373 kts 326°
2026-04-24 21:25 34.95809 45.24228 40140 ft 373 kts 326°
2026-04-24 21:25 35.00615 45.21846 40127 ft 373 kts 326°
2026-04-24 21:26 35.05393 45.19483 40132 ft 372 kts 326°
2026-04-24 21:26 35.10199 45.17109 40069 ft 373 kts 326°
2026-04-24 21:27 35.15012 45.14734 40052 ft 372 kts 326°
2026-04-24 21:27 35.19816 45.12370 40076 ft 372 kts 326°
2026-04-24 21:28 35.24621 45.10008 40073 ft 372 kts 326°
2026-04-24 21:28 35.29396 45.07663 40085 ft 371 kts 326°
2026-04-24 21:29 35.34195 45.05311 40088 ft 371 kts 326°
2026-04-24 21:29 35.38968 45.02984 40130 ft 367 kts 326°
2026-04-24 21:30 35.43746 45.00654 39986 ft 372 kts 326°
2026-04-24 21:30 35.48531 44.98315 39972 ft 372 kts 327°
2026-04-24 21:31 35.53326 44.95979 40013 ft 370 kts 327°
2026-04-24 21:31 35.58121 44.93647 39974 ft 371 kts 327°
2026-04-24 21:32 35.62923 44.91313 40031 ft 370 kts 327°
2026-04-24 21:32 35.67705 44.88998 40030 ft 369 kts 327°
2026-04-24 21:33 35.72504 44.86673 40011 ft 370 kts 327°
2026-04-24 21:33 35.77304 44.84347 40024 ft 370 kts 327°
2026-04-24 21:34 35.82077 44.82034 40008 ft 371 kts 327°
2026-04-24 21:34 35.86877 44.79711 40003 ft 370 kts 327°
2026-04-24 21:35 35.91679 44.77388 39967 ft 372 kts 327°
2026-04-24 21:35 35.96504 44.75053 39969 ft 371 kts 327°
2026-04-24 21:36 36.01277 44.72752 40010 ft 370 kts 327°
2026-04-24 21:36 36.06085 44.70434 39968 ft 372 kts 327°
2026-04-24 21:37 36.10913 44.68105 39987 ft 371 kts 327°
2026-04-24 21:37 36.15727 44.65792 39999 ft 371 kts 327°
2026-04-24 21:38 36.20536 44.63481 40010 ft 371 kts 327°
2026-04-24 21:38 36.25347 44.61174 40017 ft 370 kts 327°
2026-04-24 21:39 36.30155 44.58869 40031 ft 371 kts 327°